Location: *
(49.9853°N, 3.5569°E)
Time: 04:36:08
(UTC+00:00)

Meteor 1-21 Rocket - Pass Details

Date: 22 September 2019
Orbit: 834 x 907 km, 81.2° (Epoch: 19 October)

Event Time Altitude Azimuth Distance (km) Brightness Sun altitude
Rises 20:32:48 0° 347° (NNW) 3,527 8.1 -26.2°
Reaches altitude 10° 20:35:16 10° 349° (NNW) 2,590 7.3 -26.5°
Maximum altitude 20:41:13 85° 77° (ENE) 917 4.2 -27.2°
Enters shadow 20:41:35 79° 140° (SE) 930 4.2 -27.3°
